[[{"header":{"parameterUnit":"m.s-1","parameterCategory":1,"la1":30.2991,"la2":30.254,"lo1":-89.0895,"lo2":-89.0444,"dy":0.0017,"dx":0.0017,"nx":28,"ny":28,"refTime":"2024-09-01T09:00:00:Z","depth":0,"parameterNumber":2,"parameterNumberName":"U-component_of_WINDS"},"data":[0,0,0,0,0,0,0,0,0,0,0,0,0,0,0,0,0,0,0,0,0,0,0,0,0,0,0,0,0,0,0,0,0,0,0,0,0,0,0,0,0,0,0,0,0,0,0,0,0,0,0,0,0,0,0,0,0,0,-1.6679,-1.6678,0,-1.6537,-1.6535,-1.6534,-1.6461,-1.646,-1.646,-1.646,-1.6314,-1.6311,-1.6307,0,0,0,0,0,0,0,0,0,0,0,0,0,-1.6887,-1.6883,-1.6679,-1.6678,-1.6676,-1.6537,-1.6535,-1.6533,-1.6461,-1.646,-1.646,-1.646,-1.6316,-1.6311,-1.6307,0,0,0,0,0,0,0,0,0,0,0,0,0,-1.6776,-1.6882,-1.668,-1.6623,-1.6616,-1.6538,-1.6535,-1.6533,-1.6461,-1.646,-1.646,-1.646,-1.6317,-1.6312,-1.6306,-1.6273,0,0,-1.6288,-1.6286,0,0,0,0,0,0,0,0,-1.6782,-1.6768,-1.6633,-1.6626,-1.6619,-1.6516,-1.6555,-1.6446,-1.6461,-1.652,-1.646,-1.646,-1.6382,-1.6371,-1.6344,-1.6266,-1.626,-1.6288,-1.6284,-1.6282,-1.628,0,0,0,0,0,0,0,-1.679,-1.6774,-1.6623,-1.6631,-1.6622,-1.6604,-1.6588,-1.6534,-1.6453,-1.6514,-1.6509,-1.6493,-1.6378,-1.635,-1.634,-1.6258,-1.6288,-1.6283,-1.628,-1.6277,-1.6145,-1.6145,0,0,0,0,0,0,-1.6807,-1.6781,-1.6627,-1.6619,-1.6702,-1.66,-1.6583,-1.6549,-1.6453,-1.6439,-1.6493,-1.649,-1.636,-1.6347,-1.6335,-1.6289,-1.6282,-1.6277,-1.6273,-1.6145,-1.6145,-1.6145,0,0,0,0,0,0,-1.6812,-1.6794,-1.6633,-1.6698,-1.6676,-1.6597,-1.656,-1.6547,-1.6519,-1.6437,-1.6423,-1.648,-1.6359,-1.6343,-1.6289,-1.6283,-1.6274,-1.6269,-1.6145,-1.6145,-1.6145,-1.6199,0,0,0,0,0,0,-1.6818,-1.6796,-1.6783,-1.6698,-1.6673,-1.659,-1.656,-1.6544,-1.6509,-1.6504,-1.6421,-1.6407,-1.6358,-1.6298,-1.6283,-1.6275,-1.6264,-1.6146,-1.6145,-1.6145,-1.6197,-1.6201,-1.6204,0,0,0,0,0,-1.6826,-1.6804,-1.6783,-1.6765,-1.6655,-1.659,-1.6575,-1.6519,-1.6509,-1.6495,-1.6443,-1.6409,-1.6287,-1.6293,-1.6276,-1.6266,-1.6146,-1.6145,-1.6145,-1.6196,-1.62,-1.6204,0,0,0,0,0,0,-1.689,-1.6792,-1.6767,-1.6718,-1.6663,-1.6578,-1.6558,-1.6526,-1.6472,-1.647,-1.6402,-1.6384,-1.6336,-1.6296,-1.6305,-1.6229,-1.6213,-1.6209,-1.6257,-1.626,-1.6264,-1.6274,-1.626,0,0,0,0,0,-1.6899,-1.6854,-1.677,-1.6735,-1.6708,-1.6638,-1.6608,-1.657,-1.651,-1.6486,-1.643,-1.6373,-1.6321,-1.6289,-1.6237,-1.6192,-1.6172,-1.6176,-1.618,-1.6183,-1.618,-1.6152,-1.6153,-1.6145,-1.6145,-1.6145,0,0,-1.6916,-1.6856,-1.6832,-1.6746,-1.6699,-1.6654,-1.6619,-1.6573,-1.6539,-1.6479,-1.6424,-1.6381,-1.6313,-1.6263,-1.6239,-1.6228,-1.6178,-1.6182,-1.6185,-1.6181,-1.6152,-1.6153,-1.6154,-1.6144,-1.6144,-1.6144,0,0,-1.6923,-1.6875,-1.6839,-1.6792,-1.6721,-1.6675,-1.6666,-1.6586,-1.6555,-1.6499,-1.6453,-1.6411,-1.6324,-1.6277,-1.6242,-1.6232,-1.6199,-1.6217,-1.6233,-1.6207,-1.6208,-1.6208,-1.6204,-1.6203,-1.6215,-1.6215,-1.6215,0,-1.6953,-1.6883,-1.6825,-1.6781,-1.6744,-1.6688,-1.6651,-1.6609,-1.6525,-1.65,-1.649,-1.6379,-1.6329,-1.6267,-1.6265,-1.6239,-1.6227,-1.6226,-1.6213,-1.6212,-1.6212,-1.6207,-1.6205,-1.6218,-1.6218,-1.6217,-1.6217,0,-1.6923,-1.6876,-1.6856,-1.6775,-1.6736,-1.6696,-1.6631,-1.6599,-1.6564,-1.6519,-1.6462,-1.6401,-1.6335,-1.6318,-1.6284,-1.6251,-1.6247,-1.6226,-1.6207,-1.6216,-1.621,-1.6208,-1.6222,-1.6221,-1.622,-1.6219,0,0,-1.6968,-1.6855,-1.6849,-1.6811,-1.6729,-1.669,-1.6648,-1.6584,-1.6557,-1.6501,-1.6463,-1.6391,-1.637,-1.633,-1.629,-1.6268,-1.6263,-1.6249,-1.6246,-1.6253,-1.6222,-1.6238,-1.6237,-1.6241,-1.624,-1.624,-1.6228,0,-1.6963,-1.6883,-1.6829,-1.6771,-1.6725,-1.6672,-1.6634,-1.658,-1.6536,-1.6491,-1.6443,-1.6393,-1.637,-1.6346,-1.6321,-1.6269,-1.6256,-1.6269,-1.6205,-1.6203,-1.6223,-1.6234,-1.6251,-1.6242,-1.6225,-1.6225,-1.6225,0,-1.6947,-1.6892,-1.6829,-1.6751,-1.673,-1.6697,-1.6634,-1.6592,-1.6528,-1.6498,-1.6454,-1.6413,-1.6366,-1.6353,-1.6286,-1.6296,-1.6267,-1.6238,-1.6236,-1.6227,-1.6214,-1.6225,-1.6238,-1.6237,-1.6221,-1.6221,-1.6221,0,-1.6984,-1.6895,-1.6845,-1.6815,-1.6723,-1.6701,-1.6661,-1.6598,-1.6563,-1.6507,-1.6484,-1.6424,-1.6391,-1.6346,-1.629,-1.6285,-1.6229,-1.6211,-1.6202,-1.6203,-1.6192,-1.6193,-1.62,-1.6174,-1.6174,-1.6174,-1.6174,0,-1.6984,-1.6948,-1.6861,-1.683,-1.6788,-1.6726,-1.6685,-1.6641,-1.6585,-1.6545,-1.6495,-1.6459,-1.6387,-1.6342,-1.6298,-1.6249,-1.6235,-1.6209,-1.6198,-1.6213,-1.6217,-1.6192,-1.6191,-1.6174,-1.6174,-1.6174,-1.6174,0,-1.7019,-1.6959,-1.6901,-1.6818,-1.6797,-1.6769,-1.6698,-1.6666,-1.662,-1.657,-1.6555,-1.6482,-1.6426,-1.6366,-1.6291,-1.6261,-1.6214,-1.6199,-1.6236,-1.6229,-1.6223,-1.6224,-1.6214,-1.6209,-1.6188,-1.6189,-1.6189,0,-1.7022,-1.6993,-1.6906,-1.6876,-1.6837,-1.6789,-1.6752,-1.669,-1.6654,-1.658,-1.6557,-1.6498,-1.6447,-1.636,-1.6301,-1.6243,-1.6225,-1.6225,-1.6216,-1.6232,-1.6224,-1.6226,-1.6223,-1.6228,-1.6229,-1.6229,-1.6229,0,-1.7035,-1.7006,-1.6955,-1.6894,-1.6852,-1.6801,-1.6748,-1.6726,-1.6653,-1.6616,-1.6558,-1.6518,-1.6441,-1.6382,-1.6316,-1.6276,-1.624,-1.6233,-1.6228,-1.6242,-1.6265,-1.6252,-1.6243,-1.6233,-1.6233,-1.6233,-1.6232,-1.6232,-1.7053,-1.7024,-1.6958,-1.6903,-1.6857,-1.6808,-1.6774,-1.6724,-1.6674,-1.6606,-1.6572,-1.6514,-1.6452,-1.636,-1.632,-1.6274,-1.6264,-1.6256,-1.6254,-1.6253,-1.6257,-1.6273,-1.6262,-1.6262,-1.6262,-1.6262,-1.6262,0,-1.7062,-1.7017,-1.6967,-1.6894,-1.6851,-1.6821,-1.6761,-1.6727,-1.6676,-1.662,-1.6571,-1.6505,-1.6448,-1.6384,-1.6323,-1.6299,-1.6281,-1.6285,-1.6285,-1.6277,-1.627,-1.628,-1.63,-1.63,-1.63,-1.63,-1.63,-1.63,-1.7061,-1.701,-1.6974,-1.69,-1.6855,-1.6797,-1.6766,-1.6721,-1.6676,-1.6603,-1.6556,-1.6514,-1.6455,-1.639,-1.6336,-1.6319,-1.6299,-1.6307,-1.6285,-1.628,-1.6277,-1.6274,-1.6283,-1.6303,-1.6303,-1.6295,-1.6295,-1.6295]},{"header":{"parameterUnit":"m.s-1","parameterCategory":1,"la1":30.2991,"la2":30.254,"lo1":-89.0895,"lo2":-89.0444,"dy":0.0017,"dx":0.0017,"nx":28,"ny":28,"refTime":"2024-09-01T09:00:00:Z","depth":0,"parameterNumber":3,"parameterNumberName":"V-component_of_WINDS"},"data":[0,0,0,0,0,0,0,0,0,0,0,0,0,0,0,0,0,0,0,0,0,0,0,0,0,0,0,0,0,0,0,0,0,0,0,0,0,0,0,0,0,0,0,0,0,0,0,0,0,0,0,0,0,0,0,0,0,0,-1.6072,-1.6075,0,-1.635,-1.6354,-1.6357,-1.6436,-1.6434,-1.6432,-1.6431,-1.6723,-1.6732,-1.6741,0,0,0,0,0,0,0,0,0,0,0,0,0,-1.5613,-1.5621,-1.6071,-1.6075,-1.6078,-1.635,-1.6354,-1.6358,-1.6436,-1.6434,-1.6432,-1.643,-1.672,-1.6731,-1.6742,0,0,0,0,0,0,0,0,0,0,0,0,0,-1.5844,-1.5624,-1.6071,-1.615,-1.616,-1.6349,-1.6354,-1.6359,-1.6436,-1.6434,-1.6432,-1.6429,-1.6716,-1.673,-1.6744,-1.6876,0,0,-1.6786,-1.6792,0,0,0,0,0,0,0,0,-1.5831,-1.5861,-1.6135,-1.6145,-1.6156,-1.6356,-1.6299,-1.6532,-1.6437,-1.6332,-1.6431,-1.6428,-1.6603,-1.6626,-1.6684,-1.689,-1.6902,-1.6787,-1.6796,-1.6802,-1.6805,0,0,0,0,0,0,0,-1.5815,-1.5849,-1.6182,-1.6139,-1.6152,-1.6174,-1.6204,-1.6344,-1.6477,-1.6341,-1.6347,-1.6378,-1.6609,-1.667,-1.6691,-1.6907,-1.6787,-1.6799,-1.6808,-1.6813,-1.7236,-1.7239,0,0,0,0,0,0,-1.5784,-1.5835,-1.6173,-1.619,-1.5984,-1.6184,-1.6218,-1.6294,-1.6476,-1.6501,-1.638,-1.6381,-1.6648,-1.6675,-1.6702,-1.6871,-1.6801,-1.6814,-1.6822,-1.7233,-1.7237,-1.724,0,0,0,0,0,0,-1.5774,-1.5814,-1.6162,-1.6015,-1.6061,-1.6194,-1.628,-1.6301,-1.6363,-1.6506,-1.6531,-1.6418,-1.6647,-1.6682,-1.6832,-1.6882,-1.6821,-1.6833,-1.723,-1.7234,-1.7238,-1.7207,0,0,0,0,0,0,-1.5761,-1.581,-1.586,-1.6015,-1.6068,-1.6286,-1.6283,-1.6308,-1.6386,-1.6389,-1.6548,-1.6572,-1.6648,-1.6811,-1.6846,-1.69,-1.6844,-1.7226,-1.7232,-1.7237,-1.7205,-1.721,-1.7215,0,0,0,0,0,-1.5744,-1.5842,-1.5862,-1.5903,-1.6134,-1.6288,-1.6319,-1.6402,-1.6389,-1.6442,-1.6534,-1.6567,-1.6869,-1.6825,-1.6865,-1.6924,-1.7223,-1.723,-1.7236,-1.7202,-1.7209,-1.7215,0,0,0,0,0,0,-1.5692,-1.5864,-1.5888,-1.6039,-1.6148,-1.6301,-1.6371,-1.6406,-1.6524,-1.6523,-1.6622,-1.6658,-1.68,-1.6877,-1.6825,-1.7062,-1.7047,-1.7062,-1.7008,-1.7015,-1.702,-1.7,-1.6856,0,0,0,0,0,-1.5697,-1.5806,-1.5951,-1.607,-1.6123,-1.6237,-1.6308,-1.6361,-1.648,-1.6527,-1.663,-1.6745,-1.6867,-1.6945,-1.7064,-1.7214,-1.7251,-1.7274,-1.7279,-1.7283,-1.7296,-1.7383,-1.7395,-1.7261,-1.7261,-1.7261,0,0,-1.5712,-1.5818,-1.5882,-1.6062,-1.6153,-1.6266,-1.6276,-1.6395,-1.648,-1.6546,-1.6694,-1.6772,-1.6908,-1.7058,-1.713,-1.7127,-1.734,-1.7291,-1.7293,-1.7305,-1.7391,-1.7403,-1.7414,-1.7266,-1.7265,-1.7264,0,0,-1.5795,-1.5885,-1.5995,-1.6085,-1.6221,-1.6296,-1.6322,-1.647,-1.6524,-1.6672,-1.6724,-1.6828,-1.7034,-1.7128,-1.7203,-1.7319,-1.7355,-1.7355,-1.7383,-1.7466,-1.7477,-1.7487,-1.7531,-1.7545,-1.7366,-1.7366,-1.7366,0,-1.5796,-1.5966,-1.6047,-1.6163,-1.6242,-1.6303,-1.6416,-1.65,-1.6669,-1.6723,-1.6716,-1.6975,-1.707,-1.7245,-1.7272,-1.733,-1.7365,-1.7339,-1.7468,-1.7479,-1.749,-1.7533,-1.7548,-1.7366,-1.7366,-1.7366,-1.7366,0,-1.5961,-1.6078,-1.615,-1.6309,-1.6396,-1.6509,-1.661,-1.6688,-1.6733,-1.6808,-1.696,-1.7075,-1.7219,-1.7264,-1.731,-1.7445,-1.7439,-1.7448,-1.7436,-1.75,-1.7543,-1.7559,-1.7365,-1.7365,-1.7365,-1.7365,0,0,-1.6025,-1.6224,-1.625,-1.6323,-1.6476,-1.657,-1.6686,-1.6824,-1.689,-1.7003,-1.7105,-1.7276,-1.7286,-1.7371,-1.7428,-1.7501,-1.7587,-1.7502,-1.7507,-1.7516,-1.7745,-1.7739,-1.7757,-1.761,-1.7613,-1.7616,-1.7735,0,-1.613,-1.6338,-1.6414,-1.6586,-1.6696,-1.6754,-1.6856,-1.6962,-1.7035,-1.714,-1.7222,-1.7342,-1.7344,-1.7396,-1.747,-1.7561,-1.7635,-1.7553,-1.7709,-1.7714,-1.7677,-1.7779,-1.7773,-1.788,-1.7751,-1.7754,-1.7756,0,-1.6281,-1.6394,-1.6577,-1.6716,-1.6765,-1.6855,-1.6987,-1.7086,-1.7207,-1.7256,-1.7348,-1.74,-1.7526,-1.7502,-1.7678,-1.7621,-1.7688,-1.7742,-1.7748,-1.777,-1.7741,-1.7806,-1.7916,-1.7933,-1.7782,-1.778,-1.7778,0,-1.6312,-1.651,-1.6645,-1.6705,-1.687,-1.6932,-1.7004,-1.7123,-1.7201,-1.7316,-1.7368,-1.7498,-1.757,-1.7669,-1.7755,-1.7729,-1.7924,-1.7907,-1.797,-1.7968,-1.8013,-1.8009,-1.8138,-1.8049,-1.8049,-1.8049,-1.8048,0,-1.6424,-1.6535,-1.6661,-1.6744,-1.687,-1.6955,-1.7077,-1.7153,-1.7258,-1.7359,-1.7416,-1.751,-1.7615,-1.7723,-1.7791,-1.7927,-1.7959,-1.8003,-1.8021,-1.8,-1.7995,-1.8049,-1.8046,-1.8053,-1.8052,-1.8051,-1.805,0,-1.6483,-1.6571,-1.6722,-1.6864,-1.6902,-1.6989,-1.7112,-1.7196,-1.7269,-1.7396,-1.7431,-1.7548,-1.7677,-1.7771,-1.7939,-1.7984,-1.8132,-1.8148,-1.8091,-1.81,-1.8159,-1.8153,-1.8331,-1.836,-1.8247,-1.8248,-1.8249,0,-1.655,-1.6636,-1.6786,-1.6856,-1.6927,-1.704,-1.7118,-1.7205,-1.7285,-1.7428,-1.7496,-1.7628,-1.774,-1.7944,-1.8046,-1.8174,-1.8196,-1.8249,-1.8216,-1.8193,-1.8201,-1.8196,-1.8206,-1.8255,-1.8256,-1.8257,-1.8257,0,-1.6662,-1.6701,-1.6811,-1.6936,-1.7028,-1.7131,-1.7236,-1.729,-1.7396,-1.7483,-1.7615,-1.77,-1.787,-1.8002,-1.814,-1.8217,-1.8256,-1.8265,-1.8288,-1.827,-1.8235,-1.8258,-1.8107,-1.8263,-1.8262,-1.8262,-1.8261,-1.8261,-1.673,-1.6809,-1.6927,-1.7047,-1.7134,-1.723,-1.7315,-1.7398,-1.7509,-1.7652,-1.7696,-1.7833,-1.7952,-1.8141,-1.8218,-1.8328,-1.8327,-1.8358,-1.8367,-1.8374,-1.8375,-1.8213,-1.8353,-1.8353,-1.8353,-1.8353,-1.8353,0,-1.6848,-1.6925,-1.7035,-1.7178,-1.7273,-1.7295,-1.7412,-1.7491,-1.761,-1.7716,-1.7823,-1.7975,-1.8102,-1.8211,-1.8344,-1.8411,-1.8432,-1.8443,-1.8442,-1.8459,-1.8367,-1.8336,-1.8424,-1.8424,-1.8424,-1.8424,-1.8424,-1.8424,-1.6921,-1.7056,-1.7108,-1.7287,-1.7364,-1.7497,-1.7561,-1.7651,-1.7736,-1.7901,-1.8006,-1.8075,-1.8184,-1.8324,-1.8443,-1.8472,-1.852,-1.8527,-1.8561,-1.8474,-1.8466,-1.8458,-1.843,-1.8536,-1.8536,-1.8644,-1.8645,-1.8646]}]]